,,Stat6,,Stat2,,Stat8,,Stat9,,Stat10,,Wind1,,Wind1,
time,status,PA1M_AVG,status,PR1M_SUM,status,RH1M_AVG,status,SR1M_AVG,status,TA1M_AVG,status,W1dAve1m,status,W1sAve1m,
2004-08-03, 00:00:00,VALID,917.934,VALID,0,VALID,96.9611,VALID,0.0169808,VALID,18.436,VALID,107,VALID,1.0123,
2004-08-03, 00:01:00,VALID,917.917,VALID,0,VALID,96.8734,VALID,0.0169808,VALID,18.4516,VALID,112,VALID,1.16502,
2004-08-03, 00:02:00,VALID,917.895,VALID,0,VALID,96.9014,VALID,0.0169808,VALID,18.4874,VALID,103,VALID,1.10849,
2004-08-03, 00:03:00,VALID,917.879,VALID,0,VALID,96.586,VALID,0,VALID,18.4938,VALID,113,VALID,1.01277,
2004-08-03, 00:04:00,VALID,917.859,VALID,0,VALID,96.3736,VALID,0.0169808,VALID,18.4908,VALID,119,VALID,1.22965,
2004-08-03, 00:05:00,VALID,917.835,VALID,0,VALID,96.4995,VALID,0,VALID,18.4816,VALID,112,VALID,1.1317,
2004-08-03, 00:06:00,VALID,917.828,VALID,0,VALID,96.5148,VALID,0,VALID,18.4749,VALID,98,VALID,0.971628,
2004-08-03, 00:07:00,VALID,917.822,VALID,0,VALID,96.3215,VALID,0.0339617,VALID,18.4749,VALID,96,VALID,0.721058,
2004-08-03, 00:08:00,VALID,917.816,VALID,0,VALID,96.3558,VALID,-0.0339617,VALID,18.4729,VALID,115,VALID,0.498326,
2004-08-03, 00:09:00,VALID,917.812,VALID,0,VALID,96.4398,VALID,-0.0509425,VALID,18.4766,VALID,127,VALID,1.14915,
2004-08-03, 00:10:00,VALID,917.797,VALID,0,VALID,96.1142,VALID,-0.101885,VALID,18.4895,VALID,93,VALID,0.565897,
2004-08-03, 00:11:00,VALID,917.797,VALID,0,VALID,96.2198,VALID,-0.0679233,VALID,18.4897,VALID,96,VALID,0.923177,
2004-08-03, 00:12:00,VALID,917.807,VALID,0,VALID,96.1498,VALID,-0.101885,VALID,18.483,VALID,90,VALID,0.681021,
2004-08-03, 00:13:00,VALID,917.803,VALID,0,VALID,96.2452,VALID,-0.0849042,VALID,18.489,VALID,128,VALID,0.742188,
2004-08-03, 00:14:00,VALID,917.807,VALID,0,VALID,96.146,VALID,-0.0849042,VALID,18.4955,VALID,105,VALID,0.832775,
2004-08-03, 00:15:00,VALID,917.798,VALID,0,VALID,96.0405,VALID,-0.101885,VALID,18.4895,VALID,122,VALID,0.945508,
2004-08-03, 00:16:00,VALID,917.777,VALID,0,VALID,96.1117,VALID,-0.101885,VALID,18.4996,VALID,121,VALID,1.08056,
2004-08-03, 00:17:00,VALID,917.78,VALID,0,VALID,95.9209,VALID,-0.0849042,VALID,18.5026,VALID,120,VALID,0.95484,
2004-08-03, 00:18:00,VALID,917.768,VALID,0,VALID,96.0735,VALID,-0.101885,VALID,18.5026,VALID,126,VALID,1.1276,
2004-08-03, 00:19:00,VALID,917.76,VALID,0,VALID,95.9756,VALID,-0.0849042,VALID,18.5349,VALID,133,VALID,1.17578,
2004-08-03, 00:20:00,VALID,917.728,VALID,0,VALID,95.7734,VALID,-0.101885,VALID,18.5478,VALID,122,VALID,1.0199,
2004-08-03, 00:21:00,VALID,917.702,VALID,0,VALID,95.7722,VALID,-0.101885,VALID,18.5379,VALID,98,VALID,0.895349,
2004-08-03, 00:22:00,VALID,917.7,VALID,0,VALID,95.7836,VALID,-0.101885,VALID,18.5511,VALID,103,VALID,0.775746,
2004-08-03, 00:23:00,VALID,917.707,VALID,0,VALID,95.6743,VALID,-0.0339617,VALID,18.5437,VALID,111,VALID,0.811773,
2004-08-03, 00:24:00,VALID,917.695,VALID,0,VALID,95.7836,VALID,0,VALID,18.5363,VALID,127,VALID,0.811612,
2004-08-03, 00:25:00,VALID,917.697,VALID,0,VALID,95.8141,VALID,0,VALID,18.54,VALID,112,VALID,0.927379,
2004-08-03, 00:26:00,VALID,917.705,VALID,0,VALID,95.8154,VALID,0,VALID,18.543,VALID,125,VALID,0.754573,
2004-08-03, 00:27:00,VALID,917.717,VALID,0,VALID,95.8281,VALID,0.0169808,VALID,18.5531,VALID,130,VALID,0.890253,
2004-08-03, 00:28:00,VALID,917.716,VALID,0,VALID,95.7111,VALID,0,VALID,18.5524,VALID,124,VALID,0.878811,
2004-08-03, 00:29:00,VALID,917.734,VALID,0,VALID,95.6755,VALID,-0.0169808,VALID,18.5494,VALID,133,VALID,0.971875,
2004-08-03, 00:30:00,VALID,917.715,VALID,0,VALID,95.8853,VALID,0,VALID,18.572,VALID,141,VALID,1.17914,
2004-08-03, 00:31:00,VALID,917.733,VALID,0,VALID,95.6158,VALID,0,VALID,18.5785,VALID,135,VALID,1.10647,
2004-08-03, 00:32:00,VALID,917.73,VALID,0,VALID,95.4835,VALID,0,VALID,18.5916,VALID,125,VALID,1.27649,
2004-08-03, 00:33:00,VALID,917.72,VALID,0,VALID,95.8167,VALID,0.0339617,VALID,18.6011,VALID,134,VALID,1.42305,
2004-08-03, 00:34:00,VALID,917.728,VALID,0,VALID,95.6946,VALID,0,VALID,18.614,VALID,130,VALID,1.31231,
2004-08-03, 00:35:00,VALID,917.721,VALID,0,VALID,95.7874,VALID,0.0169808,VALID,18.6071,VALID,137,VALID,1.11868,
2004-08-03, 00:36:00,VALID,917.729,VALID,0,VALID,95.8803,VALID,0.0169808,VALID,18.6147,VALID,140,VALID,0.984561,
2004-08-03, 00:37:00,VALID,917.728,VALID,0,VALID,95.8841,VALID,-0.0169808,VALID,18.5981,VALID,133,VALID,1.02463,
2004-08-03, 00:38:00,VALID,917.719,VALID,0,VALID,95.9705,VALID,0,VALID,18.5812,VALID,129,VALID,1.15644,
2004-08-03, 00:39:00,VALID,917.709,VALID,0,VALID,95.9324,VALID,0,VALID,18.5951,VALID,124,VALID,1.1468,
2004-08-03, 00:40:00,VALID,917.697,VALID,0,VALID,95.8167,VALID,0.0169808,VALID,18.5785,VALID,136,VALID,0.926367,
2004-08-03, 00:41:00,VALID,917.673,VALID,0,VALID,95.8726,VALID,0.0169808,VALID,18.5621,VALID,131,VALID,1.36074,
2004-08-03, 00:42:00,VALID,917.654,VALID,0,VALID,96.1409,VALID,0.0169808,VALID,18.5656,VALID,125,VALID,1.25309,
2004-08-03, 00:43:00,VALID,917.633,VALID,0,VALID,96.0163,VALID,0,VALID,18.5561,VALID,137,VALID,1.05632,
2004-08-03, 00:44:00,VALID,917.625,VALID,0,VALID,95.9858,VALID,-0.0169808,VALID,18.5268,VALID,129,VALID,0.831745,
2004-08-03, 00:45:00,VALID,917.616,VALID,0,VALID,95.982,VALID,0.0339617,VALID,18.5201,VALID,125,VALID,0.727679,
2004-08-03, 00:46:00,VALID,917.601,VALID,0,VALID,95.9311,VALID,0,VALID,18.4915,VALID,125,VALID,0.722565,
2004-08-03, 00:47:00,VALID,917.59,VALID,0,VALID,95.9591,VALID,0.0169808,VALID,18.4558,VALID,107,VALID,0.517361,
2004-08-03, 00:48:00,VALID,917.577,VALID,0,VALID,96.0265,VALID,0,VALID,18.433,VALID,114,VALID,0.96875,
2004-08-03, 00:49:00,VALID,917.579,VALID,0,VALID,96.2325,VALID,0.0169808,VALID,18.4168,VALID,130,VALID,0.97619,
2004-08-03, 00:50:00,VALID,917.566,VALID,0,VALID,96.2312,VALID,0,VALID,18.4171,VALID,127,VALID,0.894271,
2004-08-03, 00:51:00,VALID,917.564,VALID,0,VALID,96.2948,VALID,0.0339617,VALID,18.4074,VALID,121,VALID,0.738181,
2004-08-03, 00:52:00,VALID,917.568,VALID,0,VALID,96.3482,VALID,0,VALID,18.4041,VALID,113,VALID,0.640067,
2004-08-03, 00:53:00,VALID,917.565,VALID,0,VALID,96.3813,VALID,0,VALID,18.4111,VALID,126,VALID,0.990234,
2004-08-03, 00:54:00,VALID,917.567,VALID,0,VALID,96.4016,VALID,0.0339617,VALID,18.4138,VALID,127,VALID,0.895275,
2004-08-03, 00:55:00,VALID,917.57,VALID,0,VALID,96.3368,VALID,0,VALID,18.4265,VALID,136,VALID,0.761624,
2004-08-03, 00:56:00,VALID,917.583,VALID,0,VALID,96.2134,VALID,0,VALID,18.4332,VALID,123,VALID,0.482701,
2004-08-03, 00:57:00,VALID,917.568,VALID,0,VALID,96.1409,VALID,0,VALID,18.4263,VALID,131,VALID,0.84468,
2004-08-03, 00:58:00,VALID,917.564,VALID,0,VALID,96.1269,VALID,0,VALID,18.4394,VALID,139,VALID,1.20561,
2004-08-03, 00:59:00,VALID,917.557,VALID,0,VALID,95.9985,VALID,0,VALID,18.4528,VALID,131,VALID,1.21799,
2004-08-03, 01:00:00,VALID,917.537,VALID,0,VALID,95.8357,VALID,0.0169808,VALID,18.4719,VALID,140,VALID,1.04878,
2004-08-03, 01:01:00,VALID,917.548,VALID,0,VALID,95.9489,VALID,0,VALID,18.4915,VALID,143,VALID,1.08256,
2004-08-03, 01:02:00,VALID,917.553,VALID,0,VALID,95.7467,VALID,0,VALID,18.5171,VALID,143,VALID,1.22222,
2004-08-03, 01:03:00,VALID,917.554,VALID,0,VALID,95.5496,VALID,0,VALID,18.5404,VALID,136,VALID,1.23219,
2004-08-03, 01:04:00,VALID,917.56,VALID,0,VALID,95.3589,VALID,0,VALID,18.537,VALID,125,VALID,1.04129,
2004-08-03, 01:05:00,VALID,917.555,VALID,0,VALID,95.5471,VALID,-0.0169808,VALID,18.5367,VALID,133,VALID,1.33724,
2004-08-03, 01:06:00,VALID,917.567,VALID,0,VALID,95.5115,VALID,-0.0169808,VALID,18.5723,VALID,130,VALID,1.2411,
2004-08-03, 01:07:00,VALID,917.576,VALID,0,VALID,95.2114,VALID,0,VALID,18.5946,VALID,129,VALID,1.09747,
2004-08-03, 01:08:00,VALID,917.592,VALID,0,VALID,95.1071,VALID,0,VALID,18.6018,VALID,132,VALID,0.969866,
2004-08-03, 01:09:00,VALID,917.599,VALID,0,VALID,95.0906,VALID,-0.0509425,VALID,18.5889,VALID,118,VALID,1.07241,
2004-08-03, 01:10:00,VALID,917.583,VALID,0,VALID,95.2228,VALID,-0.0679233,VALID,18.5886,VALID,120,VALID,1.01016,
2004-08-03, 01:11:00,VALID,917.569,VALID,0,VALID,95.2025,VALID,-0.0339617,VALID,18.605,VALID,119,VALID,1.35249,
2004-08-03, 01:12:00,VALID,917.556,VALID,0,VALID,94.8655,VALID,-0.0339617,VALID,18.6276,VALID,111,VALID,0.884681,
2004-08-03, 01:13:00,VALID,917.542,VALID,0,VALID,94.7117,VALID,-0.0849042,VALID,18.6216,VALID,101,VALID,0.713034,
2004-08-03, 01:14:00,VALID,917.541,VALID,0,VALID,94.807,VALID,-0.0169808,VALID,18.5819,VALID,124,VALID,0.604992,
2004-08-03, 01:15:00,VALID,917.545,VALID,0,VALID,94.8159,VALID,-0.0339617,VALID,18.5563,VALID,94,VALID,0.75051,
2004-08-03, 01:16:00,VALID,917.544,VALID,0,VALID,95.1656,VALID,-0.0169808,VALID,18.56,VALID,111,VALID,0.92016,
2004-08-03, 01:17:00,VALID,917.537,VALID,0,VALID,95.0359,VALID,-0.0849042,VALID,18.5335,VALID,125,VALID,0.779344,
2004-08-03, 01:18:00,VALID,917.536,VALID,0,VALID,94.9939,VALID,-0.0339617,VALID,18.5303,VALID,124,VALID,0.383557,
2004-08-03, 01:19:00,VALID,917.546,VALID,0,VALID,95.0423,VALID,-0.0169808,VALID,18.5082,VALID,122,VALID,0.382031,
2004-08-03, 01:20:00,VALID,917.547,VALID,0,VALID,95.1618,VALID,-0.0339617,VALID,18.4752,VALID,147,VALID,0.256722,
2004-08-03, 01:21:00,VALID,917.549,VALID,0,VALID,95.2419,VALID,-0.0509425,VALID,18.4731,VALID,129,VALID,0.370561,
2004-08-03, 01:22:00,VALID,917.548,VALID,0,VALID,95.2737,VALID,-0.0339617,VALID,18.4505,VALID,149,VALID,0.306548,
2004-08-03, 01:23:00,VALID,917.542,VALID,0,VALID,95.2521,VALID,0,VALID,18.4051,VALID,137,VALID,0.141016,
2004-08-03, 01:24:00,VALID,917.547,VALID,0,VALID,95.261,VALID,-0.0339617,VALID,18.3758,VALID,133,VALID,0,
2004-08-03, 01:25:00,VALID,917.555,VALID,0,VALID,95.3538,VALID,-0.0169808,VALID,18.3373,VALID,121,VALID,0.0699405,
2004-08-03, 01:26:00,VALID,917.544,VALID,0,VALID,95.6641,VALID,0,VALID,18.308,VALID,124,VALID,0.276786,
2004-08-03, 01:27:00,VALID,917.556,VALID,0,VALID,95.7099,VALID,-0.0339617,VALID,18.2948,VALID,135,VALID,0.0296875,
2004-08-03, 01:28:00,VALID,917.563,VALID,0,VALID,95.6704,VALID,-0.0169808,VALID,18.272,VALID,135,VALID,0,
2004-08-03, 01:29:00,VALID,917.564,VALID,0,VALID,95.8586,VALID,-0.0169808,VALID,18.269,VALID,135,VALID,0,
2004-08-03, 01:30:00,VALID,917.546,VALID,0,VALID,95.9731,VALID,-0.0169808,VALID,18.2725,VALID,135,VALID,0.0910247,
2004-08-03, 01:31:00,VALID,917.541,VALID,0,VALID,95.6221,VALID,-0.0169808,VALID,18.2342,VALID,135,VALID,0.141868,
2004-08-03, 01:32:00,VALID,917.53,VALID,0,VALID,95.7976,VALID,0,VALID,18.1689,VALID,135,VALID,0.0841206,
2004-08-03, 01:33:00,VALID,917.528,VALID,0,VALID,95.8269,VALID,-0.0509425,VALID,18.1108,VALID,135,VALID,0,
2004-08-03, 01:34:00,VALID,917.517,VALID,0,VALID,95.8675,VALID,-0.0509425,VALID,18.046,VALID,135,VALID,0,
2004-08-03, 01:35:00,VALID,917.514,VALID,0,VALID,95.9146,VALID,0,VALID,18.0047,VALID,135,VALID,0,
2004-08-03, 01:36:00,VALID,917.516,VALID,0,VALID,95.8523,VALID,-0.0169808,VALID,17.9529,VALID,135,VALID,0,
2004-08-03, 01:37:00,VALID,917.516,VALID,0,VALID,95.9782,VALID,-0.0339617,VALID,17.9079,VALID,135,VALID,0,
2004-08-03, 01:38:00,VALID,917.508,VALID,0,VALID,96.6089,VALID,-0.0339617,VALID,17.8984,VALID,135,VALID,0,
2004-08-03, 01:39:00,VALID,917.509,VALID,0,VALID,97.0501,VALID,-0.0169808,VALID,17.8982,VALID,135,VALID,0,
2004-08-03, 01:40:00,VALID,917.506,VALID,0,VALID,97.2777,VALID,0,VALID,17.9107,VALID,135,VALID,0.0803571,
2004-08-03, 01:41:00,VALID,917.498,VALID,0,VALID,97.2828,VALID,-0.0339617,VALID,17.8855,VALID,135,VALID,0.230923,
2004-08-03, 01:42:00,VALID,917.496,VALID,0,VALID,97.63,VALID,-0.0339617,VALID,17.8629,VALID,135,VALID,0.154978,
2004-08-03, 01:43:00,VALID,917.505,VALID,0,VALID,97.4342,VALID,0,VALID,17.8274,VALID,135,VALID,0.300694,
2004-08-03, 01:44:00,VALID,917.494,VALID,0,VALID,97.382,VALID,-0.0509425,VALID,17.7629,VALID,136,VALID,0.457667,
2004-08-03, 01:45:00,VALID,917.484,VALID,0,VALID,97.8487,VALID,-0.0679233,VALID,17.7308,VALID,125,VALID,0.607143,
2004-08-03, 01:46:00,VALID,917.469,VALID,0,VALID,97.9148,VALID,-0.0509425,VALID,17.7243,VALID,131,VALID,0.715843,
2004-08-03, 01:47:00,VALID,917.462,VALID,0,VALID,97.939,VALID,-0.0509425,VALID,17.6951,VALID,132,VALID,0.645531,
2004-08-03, 01:48:00,VALID,917.468,VALID,0,VALID,98.0649,VALID,0,VALID,17.6847,VALID,132,VALID,0.443403,
2004-08-03, 01:49:00,VALID,917.479,VALID,0,VALID,97.9136,VALID,-0.0679233,VALID,17.6531,VALID,132,VALID,0.432546,
2004-08-03, 01:50:00,VALID,917.471,VALID,0,VALID,98.1908,VALID,-0.0679233,VALID,17.64,VALID,131,VALID,0.378906,
2004-08-03, 01:51:00,VALID,917.469,VALID,0,VALID,98.4133,VALID,-0.0679233,VALID,17.637,VALID,131,VALID,0.46439,
2004-08-03, 01:52:00,VALID,917.46,VALID,0,VALID,98.5455,VALID,-0.0339617,VALID,17.6301,VALID,125,VALID,0.489644,
2004-08-03, 01:53:00,VALID,917.451,VALID,0,VALID,98.6358,VALID,-0.0169808,VALID,17.6305,VALID,119,VALID,0.486049,
2004-08-03, 01:54:00,VALID,917.447,VALID,0,VALID,98.5824,VALID,-0.0169808,VALID,17.6012,VALID,113,VALID,0.421684,
2004-08-03, 01:55:00,VALID,917.451,VALID,0,VALID,98.8634,VALID,-0.0169808,VALID,17.6047,VALID,88,VALID,0.551339,
2004-08-03, 01:56:00,VALID,917.444,VALID,0,VALID,99.1534,VALID,-0.0169808,VALID,17.631,VALID,85,VALID,0.593006,
2004-08-03, 01:57:00,VALID,917.447,VALID,0,VALID,99.512,VALID,-0.0679233,VALID,17.6824,VALID,86,VALID,0.625572,
2004-08-03, 01:58:00,VALID,917.421,VALID,0,VALID,99.5883,VALID,-0.0339617,VALID,17.7377,VALID,89,VALID,0.704687,
2004-08-03, 01:59:00,VALID,917.4,VALID,0,VALID,99.7141,VALID,-0.0509425,VALID,17.7827,VALID,92,VALID,0.82984,
2004-08-03, 02:00:00,VALID,917.376,VALID,0,VALID,99.6913,VALID,-0.0339617,VALID,17.8662,VALID,101,VALID,0.918155,
2004-08-03, 02:01:00,VALID,917.381,VALID,0,VALID,99.3759,VALID,-0.0679233,VALID,17.9217,VALID,112,VALID,0.938072,
2004-08-03, 02:02:00,VALID,917.371,VALID,0,VALID,98.969,VALID,0,VALID,17.9473,VALID,119,VALID,0.826029,
2004-08-03, 02:03:00,VALID,917.367,VALID,0,VALID,98.5303,VALID,-0.0169808,VALID,17.9406,VALID,114,VALID,0.852257,
2004-08-03, 02:04:00,VALID,917.344,VALID,0,VALID,98.3421,VALID,-0.0169808,VALID,17.9243,VALID,113,VALID,0.992821,
2004-08-03, 02:05:00,VALID,917.323,VALID,0,VALID,98.1984,VALID,0,VALID,17.9374,VALID,107,VALID,1.01102,
2004-08-03, 02:06:00,VALID,917.279,VALID,0,VALID,97.9542,VALID,-0.0339617,VALID,17.9372,VALID,125,VALID,1.11458,
2004-08-03, 02:07:00,VALID,917.263,VALID,0,VALID,97.4774,VALID,-0.0339617,VALID,17.9086,VALID,116,VALID,1.05025,
2004-08-03, 02:08:00,VALID,917.26,VALID,0,VALID,97.3566,VALID,0,VALID,17.85,VALID,112,VALID,1.11071,
2004-08-03, 02:09:00,VALID,917.26,VALID,0,VALID,97.4342,VALID,0,VALID,17.8111,VALID,111,VALID,1.12005,
2004-08-03, 02:10:00,VALID,917.263,VALID,0,VALID,97.6325,VALID,-0.0339617,VALID,17.7949,VALID,114,VALID,1.00654,
2004-08-03, 02:11:00,VALID,917.258,VALID,0,VALID,97.7546,VALID,0,VALID,17.7852,VALID,120,VALID,1.25493,
2004-08-03, 02:12:00,VALID,917.242,VALID,0,VALID,97.9403,VALID,0,VALID,17.7592,VALID,122,VALID,1.16367,
2004-08-03, 02:13:00,VALID,917.239,VALID,0,VALID,98.1335,VALID,-0.0169808,VALID,17.7497,VALID,126,VALID,1.20712,
2004-08-03, 02:14:00,VALID,917.228,VALID,0,VALID,98.3141,VALID,0,VALID,17.734,VALID,121,VALID,0.65696,
2004-08-03, 02:15:00,VALID,917.213,VALID,0,VALID,98.398,VALID,0,VALID,17.7147,VALID,129,VALID,1.31055,
2004-08-03, 02:16:00,VALID,917.227,VALID,0,VALID,98.4171,VALID,-0.0169808,VALID,17.6527,VALID,122,VALID,0.94375,
2004-08-03, 02:17:00,VALID,917.218,VALID,0,VALID,98.5048,VALID,-0.0339617,VALID,17.5948,VALID,124,VALID,0.999256,
2004-08-03, 02:18:00,VALID,917.211,VALID,0,VALID,98.7973,VALID,0,VALID,17.547,VALID,123,VALID,1.09492,
2004-08-03, 02:19:00,VALID,917.197,VALID,0,VALID,98.9703,VALID,-0.0509425,VALID,17.4917,VALID,118,VALID,0.884201,
2004-08-03, 02:20:00,VALID,917.199,VALID,0,VALID,99.1368,VALID,-0.0339617,VALID,17.4403,VALID,115,VALID,0.636133,
2004-08-03, 02:21:00,VALID,917.192,VALID,0,VALID,99.2742,VALID,-0.0169808,VALID,17.4048,VALID,115,VALID,0.629492,
2004-08-03, 02:22:00,VALID,917.194,VALID,0,VALID,99.6391,VALID,-0.0509425,VALID,17.4046,VALID,86,VALID,0.728379,
2004-08-03, 02:23:00,VALID,917.186,VALID,0,VALID,99.9751,VALID,-0.0169808,VALID,17.4429,VALID,101,VALID,0.833097,
2004-08-03, 02:24:00,VALID,917.182,VALID,0,VALID,99.9814,VALID,-0.0169808,VALID,17.5079,VALID,99,VALID,0.567835,
2004-08-03, 02:25:00,VALID,917.174,VALID,0,VALID,99.8655,VALID,-0.0509425,VALID,17.521,VALID,94,VALID,0.814918,
2004-08-03, 02:26:00,VALID,917.163,VALID,0,VALID,99.8678,VALID,-0.0339617,VALID,17.5761,VALID,58,VALID,0.853051,
2004-08-03, 02:27:00,VALID,917.164,VALID,0,VALID,99.4776,VALID,-0.0169808,VALID,17.5853,VALID,72,VALID,0.626758,
2004-08-03, 02:28:00,VALID,917.156,VALID,0,VALID,99.4344,VALID,-0.0169808,VALID,17.6047,VALID,62,VALID,0.831101,
2004-08-03, 02:29:00,VALID,917.153,VALID,0,VALID,99.3937,VALID,0,VALID,17.6563,VALID,82,VALID,0.626817,
2004-08-03, 02:30:00,VALID,917.142,VALID,0,VALID,99.1801,VALID,-0.0169808,VALID,17.6985,VALID,71,VALID,0.471037,
2004-08-03, 02:31:00,VALID,917.133,VALID,0,VALID,98.8812,VALID,-0.0509425,VALID,17.705,VALID,75,VALID,0.506098,
2004-08-03, 02:32:00,VALID,917.133,VALID,0,VALID,98.7541,VALID,-0.0339617,VALID,17.7048,VALID,74,VALID,0.612424,
2004-08-03, 02:33:00,VALID,917.124,VALID,0,VALID,98.8609,VALID,0,VALID,17.7306,VALID,60,VALID,0.731585,
2004-08-03, 02:34:00,VALID,917.124,VALID,0,VALID,98.8444,VALID,-0.0169808,VALID,17.776,VALID,92,VALID,0.713728,
2004-08-03, 02:35:00,VALID,917.119,VALID,0,VALID,98.7287,VALID,-0.0169808,VALID,17.8111,VALID,79,VALID,0.695703,
2004-08-03, 02:36:00,VALID,917.113,VALID,0,VALID,98.6117,VALID,-0.0339617,VALID,17.8602,VALID,83,VALID,0.873326,
2004-08-03, 02:37:00,VALID,917.119,VALID,0,VALID,98.468,VALID,-0.0339617,VALID,17.9146,VALID,88,VALID,0.966146,
2004-08-03, 02:38:00,VALID,917.116,VALID,0,VALID,98.1768,VALID,-0.0169808,VALID,17.9503,VALID,90,VALID,0.839134,
2004-08-03, 02:39:00,VALID,917.107,VALID,0,VALID,97.8983,VALID,-0.0339617,VALID,17.9662,VALID,117,VALID,1.06128,
2004-08-03, 02:40:00,VALID,917.107,VALID,0,VALID,97.6084,VALID,-0.0339617,VALID,17.9761,VALID,125,VALID,1.20833,
2004-08-03, 02:41:00,VALID,917.099,VALID,0,VALID,97.4227,VALID,-0.0169808,VALID,17.9861,VALID,126,VALID,1.16825,
2004-08-03, 02:42:00,VALID,917.096,VALID,0,VALID,97.3197,VALID,-0.0169808,VALID,17.9824,VALID,128,VALID,1.12258,
2004-08-03, 02:43:00,VALID,917.089,VALID,0,VALID,97.1112,VALID,0,VALID,17.9596,VALID,135,VALID,1.17653,
2004-08-03, 02:44:00,VALID,917.089,VALID,0,VALID,97.0692,VALID,-0.0339617,VALID,17.9376,VALID,137,VALID,1.12099,
2004-08-03, 02:45:00,VALID,917.078,VALID,0,VALID,97.2688,VALID,-0.0509425,VALID,17.9344,VALID,139,VALID,1.03441,
2004-08-03, 02:46:00,VALID,917.075,VALID,0,VALID,97.321,VALID,-0.0679233,VALID,17.9406,VALID,137,VALID,0.88548,
2004-08-03, 02:47:00,VALID,917.089,VALID,0,VALID,97.3782,VALID,-0.0679233,VALID,17.9337,VALID,137,VALID,0.652798,
2004-08-03, 02:48:00,VALID,917.08,VALID,0,VALID,97.3718,VALID,0,VALID,17.9277,VALID,137,VALID,0.653872,
2004-08-03, 02:49:00,VALID,917.071,VALID,0,VALID,97.4227,VALID,0,VALID,17.9471,VALID,137,VALID,0.735709,
2004-08-03, 02:50:00,VALID,917.052,VALID,0,VALID,97.1633,VALID,0,VALID,17.9342,VALID,137,VALID,0.686481,
2004-08-03, 02:51:00,VALID,917.05,VALID,0,VALID,97.4113,VALID,-0.0169808,VALID,17.9208,VALID,137,VALID,1.15513,
2004-08-03, 02:52:00,VALID,917.029,VALID,0,VALID,97.2282,VALID,-0.0169808,VALID,17.9178,VALID,135,VALID,1.06734,
2004-08-03, 02:53:00,VALID,917.018,VALID,0,VALID,97.059,VALID,-0.0339617,VALID,17.8883,VALID,136,VALID,0.783008,
2004-08-03, 02:54:00,VALID,916.99,VALID,0,VALID,96.9675,VALID,-0.0169808,VALID,17.847,VALID,136,VALID,0.776296,
2004-08-03, 02:55:00,VALID,916.986,VALID,0,VALID,97.1938,VALID,-0.0509425,VALID,17.8242,VALID,128,VALID,0.619234,
2004-08-03, 02:56:00,VALID,917.004,VALID,0,VALID,97.6592,VALID,-0.0339617,VALID,17.8309,VALID,119,VALID,0.602121,
2004-08-03, 02:57:00,VALID,916.986,VALID,0,VALID,97.7393,VALID,-0.0169808,VALID,17.8401,VALID,119,VALID,0.708984,
2004-08-03, 02:58:00,VALID,916.982,VALID,0,VALID,97.761,VALID,0,VALID,17.8463,VALID,119,VALID,0.579459,
2004-08-03, 02:59:00,VALID,916.976,VALID,0,VALID,97.7457,VALID,0,VALID,17.8468,VALID,120,VALID,0.48473,
2004-08-03, 03:00:00,VALID,916.977,VALID,0,VALID,97.5639,VALID,-0.0169808,VALID,17.8242,VALID,119,VALID,0.519871,
2004-08-03, 03:01:00,VALID,916.974,VALID,0,VALID,97.794,VALID,0,VALID,17.8147,VALID,103,VALID,0.66441,
2004-08-03, 03:02:00,VALID,916.976,VALID,0,VALID,98.1043,VALID,-0.0509425,VALID,17.8309,VALID,100,VALID,0.813988,
2004-08-03, 03:03:00,VALID,916.964,VALID,0,VALID,98.173,VALID,-0.0169808,VALID,17.8632,VALID,104,VALID,0.634766,
2004-08-03, 03:04:00,VALID,916.96,VALID,0,VALID,98.1081,VALID,-0.0339617,VALID,17.8954,VALID,119,VALID,0.868712,
2004-08-03, 03:05:00,VALID,916.949,VALID,0,VALID,97.8538,VALID,-0.0169808,VALID,17.9178,VALID,111,VALID,0.839472,
2004-08-03, 03:06:00,VALID,916.958,VALID,0,VALID,97.4202,VALID,-0.0339617,VALID,17.9307,VALID,109,VALID,0.841346,
2004-08-03, 03:07:00,VALID,916.964,VALID,0,VALID,97.1442,VALID,-0.0169808,VALID,17.9114,VALID,106,VALID,0.754808,
2004-08-03, 03:08:00,VALID,916.969,VALID,0,VALID,97.1786,VALID,0.0509425,VALID,17.8754,VALID,110,VALID,0.579241,
2004-08-03, 03:09:00,VALID,916.985,VALID,0,VALID,97.0743,VALID,0.0849042,VALID,17.8295,VALID,95,VALID,0.620236,
2004-08-03, 03:10:00,VALID,916.988,VALID,0,VALID,97.2358,VALID,0.0849042,VALID,17.8005,VALID,85,VALID,0.627668,
2004-08-03, 03:11:00,VALID,916.975,VALID,0,VALID,97.4303,VALID,0.101885,VALID,17.7714,VALID,106,VALID,0.705788,
2004-08-03, 03:12:00,VALID,916.973,VALID,0,VALID,97.4977,VALID,0.101885,VALID,17.7355,VALID,93,VALID,0.71782,
2004-08-03, 03:13:00,VALID,916.968,VALID,0,VALID,97.2205,VALID,0.101885,VALID,17.7036,VALID,74,VALID,0.57984,
2004-08-03, 03:14:00,VALID,916.958,VALID,0,VALID,97.5066,VALID,0.0339617,VALID,17.6393,VALID,91,VALID,0.797783,
2004-08-03, 03:15:00,VALID,916.961,VALID,0,VALID,98.0382,VALID,0.0679233,VALID,17.652,VALID,80,VALID,0.705729,
2004-08-03, 03:16:00,VALID,916.954,VALID,0,VALID,98.0623,VALID,0.101885,VALID,17.6555,VALID,93,VALID,0.616832,
2004-08-03, 03:17:00,VALID,916.938,VALID,0,VALID,98.2124,VALID,0.0849042,VALID,17.6391,VALID,108,VALID,0.825107,
2004-08-03, 03:18:00,VALID,916.936,VALID,0,VALID,98.1691,VALID,0.101885,VALID,17.6354,VALID,121,VALID,0.894354,
2004-08-03, 03:19:00,VALID,916.927,VALID,0,VALID,98.1094,VALID,0.0679233,VALID,17.6135,VALID,122,VALID,0.627362,
2004-08-03, 03:20:00,VALID,916.916,VALID,0,VALID,98.2429,VALID,0.101885,VALID,17.581,VALID,122,VALID,0.417302,
2004-08-03, 03:21:00,VALID,916.912,VALID,0,VALID,98.2302,VALID,0.0849042,VALID,17.5748,VALID,119,VALID,0.563262,
2004-08-03, 03:22:00,VALID,916.926,VALID,0,VALID,98.337,VALID,0.0849042,VALID,17.5618,VALID,114,VALID,0.609908,
2004-08-03, 03:23:00,VALID,916.907,VALID,0,VALID,98.426,VALID,0.0169808,VALID,17.5595,VALID,114,VALID,0.449219,
2004-08-03, 03:24:00,VALID,916.9,VALID,0,VALID,98.2798,VALID,0,VALID,17.5503,VALID,125,VALID,0.267299,
2004-08-03, 03:25:00,VALID,916.876,VALID,0,VALID,98.1755,VALID,-0.0509425,VALID,17.5346,VALID,125,VALID,0.484193,
2004-08-03, 03:26:00,VALID,916.871,VALID,0,VALID,98.1361,VALID,-0.0339617,VALID,17.5085,VALID,125,VALID,0.361607,
2004-08-03, 03:27:00,VALID,916.875,VALID,0,VALID,98.1857,VALID,-0.0339617,VALID,17.4633,VALID,127,VALID,0.660256,
2004-08-03, 03:28:00,VALID,916.873,VALID,0,VALID,98.3548,VALID,-0.0169808,VALID,17.4375,VALID,143,VALID,0.65968,
2004-08-03, 03:29:00,VALID,916.871,VALID,0,VALID,98.5646,VALID,-0.0169808,VALID,17.4405,VALID,148,VALID,0.654948,
2004-08-03, 03:30:00,VALID,916.868,VALID,0,VALID,98.3561,VALID,-0.0169808,VALID,17.4145,VALID,150,VALID,0.85831,
2004-08-03, 03:31:00,VALID,916.851,VALID,0,VALID,98.3637,VALID,-0.0339617,VALID,17.3919,VALID,150,VALID,0.778872,
2004-08-03, 03:32:00,VALID,916.85,VALID,0,VALID,98.5811,VALID,0,VALID,17.3824,VALID,149,VALID,0.595203,
2004-08-03, 03:33:00,VALID,916.847,VALID,0,VALID,98.4476,VALID,-0.0169808,VALID,17.3732,VALID,150,VALID,0.476732,